Location: McFarlands Corners
(41.4117°N, 81.3382°W)
Time: 05:21:21
(UTC+00:00)

A-11 Canister half - Pass Details

Date: 23 February 2026
Orbit: 1524 x 1683 km, 47.3° (Epoch: 14 March)

Event Time Altitude Azimuth Distance (km) Brightness Sun altitude
Rises 01:41:13 0° 295° (WNW) 4,684 12.7 -29.3°
Reaches altitude 10° 01:44:15 10° 295° (WNW) 3,695 11.9 -29.9°
Maximum altitude 01:53:35 90° 25° (NNE) 1,532 8.8 -31.6°
Enters shadow 01:55:05 68° 117° (ESE) 1,627 8.8 -31.8°
